This is the latest recevied weather packets stored in our database for station/object KLEMETTI. If no packets are shown the sender has not sent any weather packets the latest 10 day(s).
| Time | Temp. | Humidity | Pressure | Rain* | Wind** | Luminosity | Snow |
|---|---|---|---|---|---|---|---|
| 1777802832 | 8.33° C | 50% | 1009.4 hPa | 0 mm | - | - | - |
| 1777801632 | 8.33° C | 48% | 1009.4 hPa | 0 mm | - | - | - |
| 1777800432 | 7.22° C | 55% | 1009.4 hPa | 0 mm | - | - | - |
| 1777799232 | 8.33° C | 54% | 1009.3 hPa | 0 mm | - | - | - |
| 1777798032 | 8.33° C | 55% | 1009 hPa | 0 mm | - | - | - |
| 1777796832 | 7.22° C | 55% | 1008.9 hPa | 0 mm | - | - | - |
| 1777795632 | 8.33° C | 54% | 1008.9 hPa | 0 mm | - | - | - |
| 1777794431 | 7.78° C | 51% | 1008.9 hPa | 0 mm | - | - | - |
| 1777793231 | 7.22° C | 52% | 1008.9 hPa | 0 mm | - | - | - |
| 1777792031 | 7.22° C | 51% | 1008.7 hPa | 0 mm | - | - | - |
| 1777790831 | 7.22° C | 55% | 1008.8 hPa | 0 mm | - | - | - |
| 1777789631 | 6.67° C | 56% | 1008.5 hPa | 0 mm | - | - | - |
| 1777788431 | 6.11° C | 53% | 1008.5 hPa | 0 mm | - | - | - |
| 1777787231 | 6.11° C | 56% | 1008.3 hPa | 0 mm | - | - | - |
| 1777786031 | 5.56° C | 57% | 1008.2 hPa | 0 mm | - | - | - |
| 1777784831 | 5° C | 56% | 1008.1 hPa | 0 mm | - | - | - |
| 1777783631 | 5° C | 58% | 1008 hPa | 0 mm | - | - | - |
| 1777782431 | 5° C | 60% | 1008 hPa | 0 mm | - | - | - |
| 1777778831 | 5.56° C | 59% | 1007.7 hPa | 0 mm | - | - | - |
| 1777777631 | 5.56° C | 61% | 1007.7 hPa | 0 mm | - | - | - |
| 1777776431 | 6.11° C | 62% | 1007.5 hPa | 0 mm | - | - | - |
| 1777775230 | 6.11° C | 63% | 1007.6 hPa | 0 mm | - | - | - |
| 1777774031 | 6.11° C | 64% | 1007.6 hPa | 0 mm | - | - | - |
| 1777772831 | 6.11° C | 67% | 1007.4 hPa | 0 mm | - | - | - |
| 1777771630 | 6.11° C | 71% | 1007.4 hPa | 0 mm | - | - | - |
* Rain latest hour (hover to see other rain measurements)
** Current wind speed in m/s (hover to see current wind gust speed)